Time,TemperatureF,DewpointF,PressureIn,WindDirection,WindDirectionDegrees,WindSpeedMPH,WindSpeedGustMPH,Humidity,HourlyPrecipIn,Conditions,Clouds,dailyrainin,SoftwareType,DateUTC
2013-10-15 00:13:00,70.0,69.7,29.95,ESE,112,1.6,-999.0,99,-99.99,,,0.00,Acu-Link.com,2013-10-15 05:13:00,
2013-10-15 00:29:00,69.6,69.3,29.95,SSE,157,1.1,-999.0,99,-99.99,,,0.00,Acu-Link.com,2013-10-15 05:29:00,
2013-10-15 00:44:00,69.6,69.3,29.94,SE,135,0.0,-999.0,99,-99.99,,,0.00,Acu-Link.com,2013-10-15 05:44:00,
2013-10-15 00:59:00,69.3,69.0,29.93,East,90,0.0,-999.0,99,-99.99,,,0.00,Acu-Link.com,2013-10-15 05:59:00,
2013-10-15 01:16:00,69.4,69.1,29.93,East,90,1.6,-999.0,99,-99.99,,,0.00,Acu-Link.com,2013-10-15 06:16:00,
2013-10-15 01:31:00,69.4,69.1,29.92,East,90,0.0,-999.0,99,-99.99,,,0.00,Acu-Link.com,2013-10-15 06:31:00,
2013-10-15 01:47:00,69.3,69.0,29.92,SW,225,0.0,-999.0,99,-99.99,,,0.00,Acu-Link.com,2013-10-15 06:47:00,
2013-10-15 02:02:00,69.1,68.8,29.92,NNW,337,0.0,-999.0,99,-99.99,,,0.00,Acu-Link.com,2013-10-15 07:02:00,
2013-10-15 02:18:00,69.1,68.8,29.92,NW,315,0.0,-999.0,99,-99.99,,,0.00,Acu-Link.com,2013-10-15 07:18:00,
2013-10-15 02:33:00,68.9,68.6,29.93,East,90,0.0,-999.0,99,-99.99,,,0.00,Acu-Link.com,2013-10-15 07:33:00,
2013-10-15 02:49:00,68.5,68.2,29.92,East,90,1.6,-999.0,99,-99.99,,,0.00,Acu-Link.com,2013-10-15 07:49:00,
2013-10-15 03:04:00,68.5,68.2,29.93,East,90,1.6,-999.0,99,-99.99,,,0.00,Acu-Link.com,2013-10-15 08:04:00,
2013-10-15 03:19:00,68.0,67.7,29.93,East,90,0.0,-999.0,99,-99.99,,,0.00,Acu-Link.com,2013-10-15 08:19:00,
2013-10-15 03:35:00,67.8,67.5,29.93,NW,315,0.0,-999.0,99,-99.99,,,0.00,Acu-Link.com,2013-10-15 08:35:00,
2013-10-15 03:50:00,68.0,67.7,29.93,NNW,337,0.0,-999.0,99,-99.99,,,0.00,Acu-Link.com,2013-10-15 08:50:00,
2013-10-15 04:06:00,66.2,65.9,29.92,NNE,22,0.0,-999.0,99,-99.99,,,0.00,Acu-Link.com,2013-10-15 09:06:00,
2013-10-15 04:21:00,66.2,65.9,29.92,ESE,112,0.0,-999.0,99,-99.99,,,0.00,Acu-Link.com,2013-10-15 09:21:00,
2013-10-15 04:36:00,66.0,65.7,29.92,ESE,112,0.0,-999.0,99,-99.99,,,0.00,Acu-Link.com,2013-10-15 09:36:00,
2013-10-15 04:51:00,65.8,65.6,29.92,ENE,67,0.0,-999.0,99,-99.99,,,0.00,Acu-Link.com,2013-10-15 09:51:00,
2013-10-15 05:07:00,65.8,65.6,29.92,WNW,292,0.0,-999.0,99,-99.99,,,0.00,Acu-Link.com,2013-10-15 10:07:00,
2013-10-15 05:22:00,66.0,65.7,29.92,ESE,112,0.0,-999.0,99,-99.99,,,0.00,Acu-Link.com,2013-10-15 10:22:00,
2013-10-15 05:37:00,66.4,66.1,29.93,ENE,67,0.0,-999.0,99,-99.99,,,0.00,Acu-Link.com,2013-10-15 10:37:00,
2013-10-15 05:52:00,66.4,66.1,29.92,SSE,157,0.0,-999.0,99,-99.99,,,0.00,Acu-Link.com,2013-10-15 10:52:00,
2013-10-15 06:07:00,66.4,66.1,29.92,NNE,22,0.0,-999.0,99,-99.99,,,0.00,Acu-Link.com,2013-10-15 11:07:00,
2013-10-15 06:23:00,66.4,66.1,29.92,NNE,22,0.0,-999.0,99,-99.99,,,0.00,Acu-Link.com,2013-10-15 11:23:00,
2013-10-15 06:38:00,65.7,65.4,29.92,ESE,112,0.0,-999.0,99,-99.99,,,0.00,Acu-Link.com,2013-10-15 11:38:00,
2013-10-15 06:53:00,65.8,65.6,29.93,NNW,337,0.0,-999.0,99,-99.99,,,0.00,Acu-Link.com,2013-10-15 11:53:00,
2013-10-15 07:09:00,66.0,65.7,29.93,East,90,0.0,-999.0,99,-99.99,,,0.00,Acu-Link.com,2013-10-15 12:09:00,
2013-10-15 07:24:00,66.0,65.7,29.93,WNW,292,0.0,-999.0,99,-99.99,,,0.00,Acu-Link.com,2013-10-15 12:24:00,
2013-10-15 07:39:00,66.9,66.6,29.93,NW,315,0.0,-999.0,99,-99.99,,,0.00,Acu-Link.com,2013-10-15 12:39:00,
2013-10-15 07:54:00,67.6,67.3,29.93,East,90,1.6,-999.0,99,-99.99,,,0.00,Acu-Link.com,2013-10-15 12:54:00,
2013-10-15 08:10:00,68.5,68.2,29.94,ESE,112,2.2,-999.0,99,-99.99,,,0.00,Acu-Link.com,2013-10-15 13:10:00,
2013-10-15 08:25:00,71.4,71.1,29.94,NNE,22,0.0,-999.0,99,-99.99,,,0.00,Acu-Link.com,2013-10-15 13:25:00,
2013-10-15 08:40:00,72.9,72.3,29.95,East,90,2.2,-999.0,98,-99.99,,,0.00,Acu-Link.com,2013-10-15 13:40:00,
2013-10-15 08:56:00,74.8,72.7,29.95,ESE,112,2.7,-999.0,93,-99.99,,,0.00,Acu-Link.com,2013-10-15 13:56:00,
2013-10-15 09:11:00,75.4,72.2,29.96,East,90,3.8,-999.0,90,-99.99,,,0.00,Acu-Link.com,2013-10-15 14:11:00,
2013-10-15 09:26:00,76.5,73.3,29.96,ESE,112,2.7,-999.0,90,-99.99,,,0.00,Acu-Link.com,2013-10-15 14:26:00,
2013-10-15 09:42:00,77.5,73.0,29.95,NE,45,4.3,-999.0,86,-99.99,,,0.00,Acu-Link.com,2013-10-15 14:42:00,
2013-10-15 09:57:00,78.3,73.0,29.95,ESE,112,2.7,-999.0,84,-99.99,,,0.00,Acu-Link.com,2013-10-15 14:57:00,
2013-10-15 10:12:00,80.1,74.1,29.95,SSE,157,4.3,-999.0,82,-99.99,,,0.00,Acu-Link.com,2013-10-15 15:12:00,
2013-10-15 10:27:00,81.5,72.4,29.95,SSE,157,5.1,-999.0,74,-99.99,,,0.00,Acu-Link.com,2013-10-15 15:27:00,
2013-10-15 10:42:00,82.2,72.3,29.94,SSW,202,5.1,-999.0,72,-99.99,,,0.00,Acu-Link.com,2013-10-15 15:42:00,
2013-10-15 10:58:00,82.2,72.7,29.94,South,180,4.3,-999.0,73,-99.99,,,0.00,Acu-Link.com,2013-10-15 15:58:00,
2013-10-15 11:13:00,83.1,71.9,29.94,South,180,5.1,-999.0,69,-99.99,,,0.00,Acu-Link.com,2013-10-15 16:13:00,
2013-10-15 11:28:00,84.2,72.5,29.94,West,270,4.3,-999.0,68,-99.99,,,0.00,Acu-Link.com,2013-10-15 16:28:00,
2013-10-15 11:44:00,84.4,72.6,29.93,SSW,202,5.8,-999.0,68,-99.99,,,0.00,Acu-Link.com,2013-10-15 16:44:00,
2013-10-15 11:59:00,84.2,71.6,29.93,SSW,202,5.1,-999.0,66,-99.99,,,0.00,Acu-Link.com,2013-10-15 16:59:00,
2013-10-15 12:14:00,84.9,72.3,29.92,SW,225,4.3,-999.0,66,-99.99,,,0.00,Acu-Link.com,2013-10-15 17:14:00,
2013-10-15 12:29:00,86.2,71.6,29.92,SSE,157,8.3,-999.0,62,-99.99,,,0.00,Acu-Link.com,2013-10-15 17:29:00,
2013-10-15 12:45:00,83.3,70.7,29.91,SSE,157,4.7,-999.0,66,-99.99,,,0.00,Acu-Link.com,2013-10-15 17:45:00,
2013-10-15 13:00:00,84.4,70.8,29.91,SW,225,4.7,-999.0,64,-99.99,,,0.00,Acu-Link.com,2013-10-15 18:00:00,
2013-10-15 13:15:00,86.2,71.1,29.90,ESE,112,3.8,-999.0,61,-99.99,,,0.00,Acu-Link.com,2013-10-15 18:15:00,
2013-10-15 13:30:00,86.9,70.8,29.89,South,180,7.4,-999.0,59,-99.99,,,0.00,Acu-Link.com,2013-10-15 18:30:00,
2013-10-15 13:46:00,87.3,71.2,29.89,SE,135,11.0,-999.0,59,-99.99,,,0.00,Acu-Link.com,2013-10-15 18:46:00,
2013-10-15 14:01:00,84.0,70.0,29.88,SSE,157,4.3,-999.0,63,-99.99,,,0.00,Acu-Link.com,2013-10-15 19:01:00,
2013-10-15 14:16:00,87.4,70.8,29.87,South,180,5.8,-999.0,58,-99.99,,,0.00,Acu-Link.com,2013-10-15 19:16:00,
2013-10-15 14:32:00,86.7,70.1,29.86,WSW,247,3.8,-999.0,58,-99.99,,,0.00,Acu-Link.com,2013-10-15 19:32:00,
2013-10-15 14:47:00,87.1,69.4,29.86,SE,135,4.3,-999.0,56,-99.99,,,0.00,Acu-Link.com,2013-10-15 19:47:00,
2013-10-15 15:02:00,85.5,69.5,29.86,South,180,3.1,-999.0,59,-99.99,,,0.00,Acu-Link.com,2013-10-15 20:02:00,
2013-10-15 15:18:00,88.0,68.7,29.86,SW,225,2.7,-999.0,53,-99.99,,,0.00,Acu-Link.com,2013-10-15 20:18:00,
2013-10-15 15:33:00,87.4,69.3,29.85,SW,225,5.8,-999.0,55,-99.99,,,0.00,Acu-Link.com,2013-10-15 20:33:00,
2013-10-15 15:48:00,87.6,69.9,29.85,SW,225,3.8,-999.0,56,-99.99,,,0.00,Acu-Link.com,2013-10-15 20:48:00,
2013-10-15 16:03:00,86.2,70.6,29.84,SSW,202,4.7,-999.0,60,-99.99,,,0.00,Acu-Link.com,2013-10-15 21:03:00,
2013-10-15 16:19:00,82.2,71.4,29.85,SSW,202,3.8,-999.0,70,-99.99,,,0.00,Acu-Link.com,2013-10-15 21:19:00,
2013-10-15 16:34:00,82.4,72.0,29.85,West,270,2.7,-999.0,71,-99.99,,,0.00,Acu-Link.com,2013-10-15 21:34:00,
2013-10-15 16:49:00,82.2,72.3,29.84,West,270,2.2,-999.0,72,-99.99,,,0.00,Acu-Link.com,2013-10-15 21:49:00,
2013-10-15 17:04:00,82.2,71.9,29.84,SW,225,3.1,-999.0,71,-99.99,,,0.00,Acu-Link.com,2013-10-15 22:04:00,
2013-10-15 17:19:00,81.3,71.4,29.84,WSW,247,1.6,-999.0,72,-99.99,,,0.00,Acu-Link.com,2013-10-15 22:19:00,
2013-10-15 17:35:00,83.5,72.2,29.84,SSW,202,2.2,-999.0,69,-99.99,,,0.00,Acu-Link.com,2013-10-15 22:35:00,
2013-10-15 17:50:00,82.9,71.7,29.84,SSE,157,1.6,-999.0,69,-99.99,,,0.00,Acu-Link.com,2013-10-15 22:50:00,
2013-10-15 18:05:00,82.2,70.6,29.85,SSE,157,2.7,-999.0,68,-99.99,,,0.00,Acu-Link.com,2013-10-15 23:05:00,
2013-10-15 18:20:00,81.7,70.5,29.85,SSW,202,1.6,-999.0,69,-99.99,,,0.00,Acu-Link.com,2013-10-15 23:20:00,
2013-10-15 18:35:00,81.1,72.4,29.84,ESE,112,3.1,-999.0,75,-99.99,,,0.00,Acu-Link.com,2013-10-15 23:35:00,
2013-10-15 18:50:00,79.2,71.3,29.84,ESE,112,3.1,-999.0,77,-99.99,,,0.00,Acu-Link.com,2013-10-15 23:50:00,
2013-10-15 19:06:00,77.9,71.6,29.84,ESE,112,2.2,-999.0,81,-99.99,,,0.00,Acu-Link.com,2013-10-16 00:06:00,
2013-10-15 19:21:00,75.9,71.1,29.85,SSW,202,2.2,-999.0,85,-99.99,,,0.00,Acu-Link.com,2013-10-16 00:21:00,
2013-10-15 19:36:00,75.4,70.9,29.85,SSE,157,0.0,-999.0,86,-99.99,,,0.00,Acu-Link.com,2013-10-16 00:36:00,
2013-10-15 19:51:00,74.7,70.5,29.87,SSW,202,0.0,-999.0,87,-99.99,,,0.00,Acu-Link.com,2013-10-16 00:51:00,
2013-10-15 20:06:00,74.1,70.0,29.87,WSW,247,0.0,-999.0,87,-99.99,,,0.00,Acu-Link.com,2013-10-16 01:06:00,
2013-10-15 20:21:00,73.4,70.0,29.88,SW,225,1.6,-999.0,89,-99.99,,,0.00,Acu-Link.com,2013-10-16 01:21:00,
2013-10-15 20:37:00,72.9,69.4,29.88,SSW,202,0.0,-999.0,89,-99.99,,,0.00,Acu-Link.com,2013-10-16 01:37:00,
2013-10-15 20:52:00,72.1,69.7,29.88,SE,135,0.0,-999.0,92,-99.99,,,0.00,Acu-Link.com,2013-10-16 01:52:00,
2013-10-15 21:07:00,71.6,69.8,29.89,ESE,112,0.0,-999.0,94,-99.99,,,0.00,Acu-Link.com,2013-10-16 02:07:00,
2013-10-15 21:22:00,71.1,68.9,29.89,NNW,337,0.0,-999.0,93,-99.99,,,0.00,Acu-Link.com,2013-10-16 02:22:00,
2013-10-15 21:38:00,70.5,69.0,29.89,North,0,0.0,-999.0,95,-99.99,,,0.00,Acu-Link.com,2013-10-16 02:38:00,
2013-10-15 21:53:00,69.8,69.2,29.89,NE,45,0.0,-999.0,98,-99.99,,,0.00,Acu-Link.com,2013-10-16 02:53:00,
2013-10-15 22:08:00,69.6,69.3,29.89,NE,45,0.0,-999.0,99,-99.99,,,0.00,Acu-Link.com,2013-10-16 03:08:00,
2013-10-15 22:23:00,69.3,69.0,29.89,SW,225,0.0,-999.0,99,-99.99,,,0.00,Acu-Link.com,2013-10-16 03:23:00,
2013-10-15 22:39:00,69.1,68.8,29.90,WNW,292,0.0,-999.0,99,-99.99,,,0.00,Acu-Link.com,2013-10-16 03:39:00,
2013-10-15 22:54:00,69.1,68.8,29.89,West,270,0.0,-999.0,99,-99.99,,,0.00,Acu-Link.com,2013-10-16 03:54:00,
2013-10-15 23:09:00,68.9,68.6,29.89,North,0,0.0,-999.0,99,-99.99,,,0.00,Acu-Link.com,2013-10-16 04:09:00,
2013-10-15 23:24:00,68.4,68.1,29.89,East,90,0.0,-999.0,99,-99.99,,,0.00,Acu-Link.com,2013-10-16 04:24:00,
2013-10-15 23:39:00,68.2,67.9,29.88,SSW,202,0.0,-999.0,99,-99.99,,,0.00,Acu-Link.com,2013-10-16 04:39:00,
2013-10-15 23:54:00,68.0,67.7,29.88,ESE,112,0.0,-999.0,99,-99.99,,,0.00,Acu-Link.com,2013-10-16 04:54:00,